TimeEDT,TemperatureF,Dew PointF,Humidity,Sea Level PressureIn,VisibilityMPH,Wind Direction,Wind SpeedMPH,Gust SpeedMPH,PrecipitationIn,Events,Conditions,WindDirDegrees,DateUTC
1:00 AM,39.2,37.4,93,30.14,9.0,North,2.3,-,N/A,,Clear,350,2012-10-08 05:00:00
2:00 AM,39,37,89,30.14,10,WNW,1.2,,,,,290,2012-10-08 06:00:00
2:00 AM,39.2,37.4,93,30.14,9.0,Variable,2.3,-,N/A,,Clear,0,2012-10-08 06:00:00
3:00 AM,39.2,35.6,87,30.14,9.0,Calm,Calm,-,N/A,,Scattered Clouds,0,2012-10-08 07:00:00
4:00 AM,42.8,39.2,87,30.14,9.0,Calm,Calm,-,N/A,,Overcast,0,2012-10-08 08:00:00
5:00 AM,41.0,39.2,93,30.15,9.0,WNW,3.5,-,N/A,,Overcast,290,2012-10-08 09:00:00
6:00 AM,42.8,37.4,81,30.17,9.0,WNW,4.6,-,N/A,,Overcast,300,2012-10-08 10:00:00
7:00 AM,42.8,37.4,81,30.17,9.0,West,3.5,-,N/A,,Overcast,270,2012-10-08 11:00:00
8:00 AM,43,38,74,30.19,10,West,1.2,,,,Overcast,280,2012-10-08 12:00:00
8:00 AM,42.8,37.4,81,30.19,9.0,Calm,Calm,-,N/A,,Overcast,0,2012-10-08 12:00:00
9:00 AM,44.6,39.2,81,30.21,9.0,WNW,9.2,-,N/A,,Overcast,300,2012-10-08 13:00:00
10:00 AM,48.2,35.6,62,30.22,9.0,West,8.1,-,N/A,,Mostly Cloudy,270,2012-10-08 14:00:00
11:00 AM,50.0,39.2,66,30.21,9.0,WSW,5.8,-,N/A,,Clear,240,2012-10-08 15:00:00
12:00 PM,50.0,39.2,66,30.20,9.0,SSW,5.8,-,N/A,,Clear,200,2012-10-08 16:00:00
1:00 PM,51.8,39.2,62,30.23,9.0,South,9.2,-,N/A,,Clear,170,2012-10-08 17:00:00
2:00 PM,53,39,47,30.20,10,South,9.2,,,,,180,2012-10-08 18:00:00
2:00 PM,53.6,39.2,58,30.20,9.0,South,9.2,-,N/A,,Clear,180,2012-10-08 18:00:00
3:00 PM,53.6,39.2,58,30.19,9.0,South,10.4,-,N/A,,Clear,180,2012-10-08 19:00:00
4:00 PM,53.6,33.8,47,30.17,9.0,South,12.7,-,N/A,,Clear,180,2012-10-08 20:00:00
5:00 PM,53.6,37.4,54,30.17,9.0,SSE,11.5,-,N/A,,Clear,160,2012-10-08 21:00:00
6:00 PM,51.8,39.2,62,30.17,9.0,SSE,12.7,-,N/A,,Partly Cloudy,160,2012-10-08 22:00:00
7:00 PM,51.8,39.2,62,30.18,9.0,South,16.1,-,N/A,,Clear,180,2012-10-08 23:00:00
8:00 PM,51,40,56,30.18,10,South,16.1,,,,,190,2012-10-09 00:00:00
8:00 PM,51.8,41.0,67,30.18,9.0,South,15.0,-,N/A,,Clear,190,2012-10-09 00:00:00
9:00 PM,50.0,41.0,71,30.19,9.0,SW,13.8,-,N/A,,Clear,220,2012-10-09 01:00:00
10:00 PM,50.0,39.2,66,30.19,9.0,SW,15.0,-,N/A,,Clear,220,2012-10-09 02:00:00
11:00 PM,46.4,39.2,76,30.20,9.0,West,6.9,-,N/A,,Clear,270,2012-10-09 03:00:00